Weather History for CYQG - May, 2013

Change the Weather History Date:

Sunday, May 19, 2013

  Actual Average Record
Temperature  
Mean Temperature 70 °F -  
Max Temperature 84 °F 74 °F 87 °F (1998)
Min Temperature 55 °F 53 °F 33 °F (2002)
Cooling Degree Days 4    
Growing Degree Days 20 (Base 50)    
Moisture  
Dew Point 56 °F    
Average Humidity 61    
Maximum Humidity 73    
Minimum Humidity 42    
Precipitation  
Precipitation 0.00 in 0.12 in - ()
Sea Level Pressure  
Sea Level Pressure 29.99 in    
Wind  
Wind Speed 5 mph ()    
Max Wind Speed 13 mph    
Max Gust Speed -    
Visibility 14.4 miles    
Events      
Averages and records for this station are not official NWS values.
T = Trace of Precipitation, MM = Missing Value Source: Averaged Metar Reports

Daily Weather History Graph

Daily Weather History Graph

Search for Another Location

Airport or City:

Trip Planner

Search our weather history database for the weather conditions in past years. The results will help you decide how hot, cold, wet, or windy it might be!

Date:

Astronomy

May. 19, 2013 Rise Set
Actual Time 6:06 AM EDT 8:50 PM EDT
Civil Twilight 5:34 AM EDT 9:23 PM EDT
Nautical Twilight 4:53 AM EDT 10:04 PM EDT
Astronomical Twilight 4:06 AM EDT 10:51 PM EDT
Moon 2:47 PM EDT (5/19) 2:36 AM EDT (5/19)
Length of Visible Light 15h 49m
Length of Day
14h 43m
Waxing Gibbous, 65% of the Moon is Illuminated
May 19
Waxing Gibbous
May 25
Full
May 31
Last Quarter
Jun 8
New
Jun 16
First Quarter

Hourly Weather History & Observations

Time (EDT) Temp. Heat Index Dew Point Humidity Pressure Visibility Wind Dir Wind Speed Gust Speed Precip Events Conditions
12:00 AM 60.8 °F - 44.6 °F 55% 30.06 in 15.0 mi NE 4.6 mph - N/A   Clear
1:00 AM 59.0 °F - 44.6 °F 59% 30.06 in 15.0 mi NE 3.5 mph - N/A   Clear
2:00 AM 58 °F - 46 °F 53% 30.04 in 15 mi NNE 4.6 mph - -   Scattered Clouds
2:00 AM 59.0 °F - 46.4 °F 63% 30.04 in 15.0 mi NNE 4.6 mph - N/A   Partly Cloudy
3:00 AM 57.2 °F - 48.2 °F 72% 30.01 in 15.0 mi East 6.9 mph - N/A   Partly Cloudy
4:00 AM 59.0 °F - 48.2 °F 67% 30.01 in 15.0 mi East 5.8 mph - N/A   Clear
5:00 AM 59.0 °F - 46.4 °F 63% 30.02 in 15.0 mi East 4.6 mph - N/A   Partly Cloudy
6:00 AM 57.2 °F - 48.2 °F 72% 30.01 in 15.0 mi East 4.6 mph - N/A   Mostly Cloudy
7:00 AM 57.2 °F - 48.2 °F 72% 30.04 in 15.0 mi East 2.3 mph - N/A   Mostly Cloudy
8:00 AM 60 °F - 52 °F 67% 30.04 in 15 mi East 2.3 mph - -   Mostly Cloudy
8:00 AM 60.8 °F - 51.8 °F 72% 30.04 in 15.0 mi East 2.3 mph - N/A   Mostly Cloudy
9:00 AM 68.0 °F - 59.0 °F 73% 30.03 in 15.0 mi SSE 3.5 mph - N/A   Partly Cloudy
10:00 AM 71.6 °F - 60.8 °F 69% 30.02 in 15.0 mi South 5.8 mph - N/A   Clear
11:00 AM 75.2 °F - 62.6 °F 65% 30.02 in 15.0 mi SSW 5.8 mph - N/A   Clear
12:00 PM 77.0 °F - 62.6 °F 61% 30.01 in 15.0 mi SSE 8.1 mph - N/A   Partly Cloudy
1:00 PM 80.6 °F 81.8 °F 62.6 °F 54% 30.00 in 15.0 mi South 6.9 mph - N/A   Mostly Cloudy
2:00 PM 81 °F - 62 °F 42% 29.97 in 15 mi SSW 9.2 mph - -   Scattered Clouds
2:00 PM 80.6 °F 81.8 °F 62.6 °F 54% 29.97 in 15.0 mi SSW 6.9 mph - N/A   Scattered Clouds
3:00 PM 82.4 °F 83.4 °F 62.6 °F 51% 29.95 in 15.0 mi South 11.5 mph - N/A   Scattered Clouds
4:00 PM 84.2 °F 85.0 °F 62.6 °F 48% 29.96 in 15.0 mi SSW 5.8 mph - N/A   Scattered Clouds
5:00 PM 82.4 °F 82.9 °F 60.8 °F 48% 29.93 in 12.0 mi Calm Calm - N/A   Partly Cloudy
6:00 PM 82.4 °F 83.4 °F 62.6 °F 51% 29.91 in 12.0 mi SE 9.2 mph - N/A   Partly Cloudy
7:00 PM 80.6 °F 81.8 °F 62.6 °F 54% 29.91 in 12.0 mi South 11.5 mph - N/A   Partly Cloudy
8:00 PM 78 °F - 62 °F 49% 29.92 in 12 mi SSE 12.7 mph - -   Clear
8:00 PM 78.8 °F - 62.6 °F 57% 29.92 in 12.0 mi SSE 12.7 mph - N/A   Partly Cloudy
9:00 PM 73.4 °F - 60.8 °F 65% 29.93 in 12.0 mi SSE 11.5 mph - N/A   Partly Cloudy
10:00 PM 69.8 °F - 60.8 °F 73% 29.94 in 15.0 mi SE 12.7 mph - N/A   Clear
11:00 PM 68.0 °F - 59.0 °F 73% 29.93 in 15.0 mi SE 9.2 mph - N/A   Clear